�N����,����,����,����,����,�C��,���x,�~����,�S�V����,�ő�u�ԕ���,,,,
,,,,,,,,,����,����,����,�N��,
yyyy/mm/dd,hh:mm:ss,(16),16����,m/s,��,%,mm,KW/�u,(16),16����,m/s,Time,
2014/5/1,1:00:00,2,�k��,1.9,6.1,99.6,0,0,2,�k��,3.4,17,
2014/5/1,2:00:00,2,�k��,1,6.3,99.7,0.5,0,2,�k��,2.8,1,
2014/5/1,3:00:00,1,�k�k��,1.8,6.2,99.8,0,0,1,�k�k��,3.2,49,
2014/5/1,4:00:00,16,�k,1,6.3,99.8,0,0,1,�k�k��,2.7,13,
2014/5/1,5:00:00,15,�k�k��,1.6,6.7,99.8,0,0.01,15,�k�k��,2.8,50,
2014/5/1,6:00:00,2,�k��,0.6,6.9,99.8,0.5,0.02,16,�k,2.4,13,
2014/5/1,7:00:00,2,�k��,0.6,7.5,99.8,0,0.07,3,���k��,1.8,17,
2014/5/1,8:00:00,6,�쓌,0.5,8.3,99.4,0,0.11,1,�k�k��,7.8,17,
2014/5/1,9:00:00,6,�쓌,1,8.9,98.5,0,0.2,5,���쓌,2.1,29,
2014/5/1,10:00:00,7,��쓌,1.1,9.5,96.5,0,0.21,6,�쓌,2,59,
2014/5/1,11:00:00,6,�쓌,2.5,8.8,95.1,0,0.4,6,�쓌,4.1,47,
2014/5/1,12:00:00,4,��,2,10.8,93.8,0,0.45,6,�쓌,3.5,45,
2014/5/1,13:00:00,6,�쓌,2.4,9.3,92.6,0,0.46,5,���쓌,3.8,33,
2014/5/1,14:00:00,2,�k��,2.5,12.2,82.6,0,0.68,3,���k��,4.2,41,
2014/5/1,15:00:00,5,���쓌,3.2,8.6,91,0,0.52,4,��,6.1,22,
2014/5/1,16:00:00,2,�k��,2.1,7.3,96,0,0.11,5,���쓌,3.6,8,
2014/5/1,17:00:00,3,���k��,3.4,6.1,98.3,0,0.04,3,���k��,5.4,49,
2014/5/1,18:00:00,2,�k��,2.3,6.5,99.2,0,0.03,1,�k�k��,4.1,22,
2014/5/1,19:00:00,4,��,2.5,5.6,99.4,0,0.01,3,���k��,4.4,58,
2014/5/1,20:00:00,2,�k��,2,5.9,99.6,0,0,3,���k��,4,3,
2014/5/1,21:00:00,1,�k�k��,2.4,6.6,99.8,0,0,1,�k�k��,3.2,53,
2014/5/1,22:00:00,2,�k��,1.9,6.7,99.6,0,0,2,�k��,3.3,59,
2014/5/1,23:00:00,1,�k�k��,2.1,6.7,99.4,0,0,1,�k�k��,4.6,48,
2014/5/1,0:00:00,5,���쓌,1.4,6.6,99.2,0,0,1,�k�k��,2.6,3,
2014/5/2,1:00:00,16,�k,0.7,6.8,99.1,0,0,5,���쓌,1.6,4,
2014/5/2,2:00:00,13,���k��,1.2,6.9,98.7,0,0,15,�k�k��,2.7,24,
2014/5/2,3:00:00,11,���쐼,0.7,7.2,98,0,0,10,�쐼,24.7,43,
2014/5/2,4:00:00,5,���쓌,1,5.9,98.1,0,0,5,���쓌,2.3,38,
2014/5/2,5:00:00,9,��쐼,0.6,6.1,98.7,0,0.01,9,��쐼,25.3,34,
2014/5/2,6:00:00,6,�쓌,0.5,7.1,98.8,0.5,0.03,10,�쐼,2.6,49,
2014/5/2,7:00:00,4,��,0.4,7.7,98.7,0,0.05,5,���쓌,1.5,45,
2014/5/2,8:00:00,1,�k�k��,0.5,9.8,97.7,0,0.07,2,�k��,1.9,8,
2014/5/2,9:00:00,6,�É�,0.2,12.3,95.6,0,0.15,2,�k��,2.3,48,
2014/5/2,10:00:00,3,���k��,1.2,15.1,85.5,0,0.27,5,���쓌,2.6,21,
2014/5/2,11:00:00,6,�쓌,2.1,15.9,76.6,0,0.38,6,�쓌,3,58,
2014/5/2,12:00:00,6,�쓌,2.7,16.3,74.4,0,0.6,6,�쓌,3.9,48,
2014/5/2,13:00:00,7,��쓌,2.7,16.4,66.8,0,0.82,8,��,4.2,53,
2014/5/2,14:00:00,7,��쓌,3.5,16.9,66.2,0,0.56,8,��,5.4,59,
2014/5/2,15:00:00,7,��쓌,3.6,15.9,70.3,0,0.53,8,��,6.5,16,
2014/5/2,16:00:00,7,��쓌,2.5,15.4,73.4,0,0.28,7,��쓌,5,0,
2014/5/2,17:00:00,9,��쐼,1.9,14.1,78.8,0,0.13,7,��쓌,4.1,7,
2014/5/2,18:00:00,11,���쐼,2.3,14.3,79.2,0,0.03,11,���쐼,3.3,48,
2014/5/2,19:00:00,6,�쓌,0.7,11.7,87.1,0,0.01,11,���쐼,3.1,8,
2014/5/2,20:00:00,9,��쐼,0.8,13.5,80.6,0,0,7,��쓌,2,39,
2014/5/2,21:00:00,9,��쐼,1.4,9,94.8,0,0,9,��쐼,2.3,51,
2014/5/2,22:00:00,13,���k��,0.5,10.4,94.5,0,0,1,�k�k��,2.3,25,
2014/5/2,23:00:00,15,�k�k��,0.8,11,91.5,0,0,13,���k��,2,39,
2014/5/2,0:00:00,13,���k��,2.2,12.2,89.7,0,0,13,���k��,3,58,
2014/5/3,1:00:00,14,�k��,0.8,11.6,90.3,0,0,14,�k��,4.5,24,
2014/5/3,2:00:00,14,�k��,1.5,11.6,88.2,0,0,14,�k��,3.6,27,
2014/5/3,3:00:00,13,���k��,1.9,11.3,90.5,0,0,9,��쐼,4,38,
2014/5/3,4:00:00,14,�k��,2.3,12.4,86,0,0,15,�k�k��,3.2,59,
2014/5/3,5:00:00,3,���k��,3.1,10.7,89,0,0.01,3,���k��,4.7,53,
2014/5/3,6:00:00,1,�k�k��,1.3,11.4,90.7,0,0.05,3,���k��,5.1,3,
2014/5/3,7:00:00,4,��,2.4,12.4,87.5,0,0.14,4,��,3,52,
2014/5/3,8:00:00,7,��쓌,1.2,12.6,83.6,0,0.24,4,��,2.6,10,
2014/5/3,9:00:00,9,��쐼,2.2,14.2,75.5,0,0.32,9,��쐼,3.8,57,
2014/5/3,10:00:00,6,�쓌,3.2,14.8,67,0,0.65,6,�쓌,5.6,40,
2014/5/3,11:00:00,7,��쓌,4,13.3,72.7,0,0.97,8,��,8.6,47,
2014/5/3,12:00:00,8,��,4.5,13.1,69.1,0,0.93,9,��쐼,8.2,12,
2014/5/3,13:00:00,8,��,3.5,12.4,71,0,0.87,8,��,8.7,24,
2014/5/3,14:00:00,8,��,4.5,10.8,78.4,0,0.61,9,��쐼,8.6,48,
2014/5/3,15:00:00,8,��,4,10.7,78.9,0,0.56,8,��,8.3,26,
2014/5/3,16:00:00,8,��,2.6,9,85.6,0,0.35,7,��쓌,7.8,1,
2014/5/3,17:00:00,6,�쓌,2,8.2,88.8,0,0.19,7,��쓌,4.6,13,
2014/5/3,18:00:00,6,�쓌,2,7.3,92.8,0,0.06,6,�쓌,3.8,54,
2014/5/3,19:00:00,6,�쓌,2.1,7.8,93.9,0,0.01,6,�쓌,4,57,
2014/5/3,20:00:00,8,��,3.6,8.8,90.8,0,0,9,��쐼,8.9,42,
2014/5/3,21:00:00,9,��쐼,3.9,8.8,91.5,0,0,8,��,9.3,12,
2014/5/3,22:00:00,9,��쐼,1.3,7.9,93.1,0,0,8,��,7.6,13,
2014/5/3,23:00:00,9,��쐼,1.2,6.7,94.9,0,0,9,��쐼,2.7,3,
2014/5/3,0:00:00,11,���쐼,4.3,10.8,56.7,0,0,12,��,8,51,
2014/5/4,1:00:00,12,��,3.3,10.3,48.7,0,0,14,�k��,9.2,21,
2014/5/4,2:00:00,11,���쐼,2.6,10.1,51,0,0,11,���쐼,7.9,29,
2014/5/4,3:00:00,11,���쐼,5.2,9.6,53.4,0,0,12,��,8.4,43,
2014/5/4,4:00:00,11,���쐼,4.8,9.3,56.4,0,0,11,���쐼,8.6,3,
2014/5/4,5:00:00,10,�쐼,3.3,9.3,57.1,0,0.01,11,���쐼,8.9,3,
2014/5/4,6:00:00,10,�쐼,3.6,10.3,56.1,0,0.15,9,��쐼,5.8,59,
2014/5/4,7:00:00,11,���쐼,5.5,11.8,51.3,0,0.37,11,���쐼,8.1,59,
2014/5/4,8:00:00,12,��,6.7,12.5,48.4,0,0.59,11,���쐼,12.6,33,
2014/5/4,9:00:00,12,��,6.9,13.5,40.7,0,0.75,11,���쐼,12.8,23,
2014/5/4,10:00:00,11,���쐼,6.2,15.6,40.6,0,0.9,11,���쐼,11,50,
2014/5/4,11:00:00,12,��,5.7,15,38.9,0,0.7,12,��,12.1,40,
2014/5/4,12:00:00,13,���k��,6.6,16.6,30.1,0,0.81,11,���쐼,11.5,56,
2014/5/4,13:00:00,13,���k��,2.7,15.3,31.8,0,0.62,12,��,14.7,20,
2014/5/4,14:00:00,15,�k�k��,3,15.5,31.9,0,0.59,13,���k��,8.3,42,
2014/5/4,15:00:00,16,�k,2.7,17,29.1,0,0.38,12,��,7.9,12,
2014/5/4,16:00:00,16,�k,3.1,17.5,31.3,0,0.56,2,�k��,8.8,1,
2014/5/4,17:00:00,6,�쓌,3,11.8,52.9,0,0.33,5,���쓌,6.7,22,
2014/5/4,18:00:00,7,��쓌,3.1,11.1,49.3,0,0.12,7,��쓌,6.8,23,
2014/5/4,19:00:00,12,��,2.3,7.3,62.6,0,0.01,6,�쓌,4.7,0,
2014/5/4,20:00:00,13,���k��,0.7,3.7,73,0,0,11,���쐼,2.2,0,
2014/5/4,21:00:00,14,�k��,1.4,3.7,82.5,0,0,13,���k��,2.4,54,
2014/5/4,22:00:00,13,���k��,1.8,1.3,88.3,0,0,2,�k��,23.8,28,
2014/5/4,23:00:00,13,���k��,1,0.6,87.9,0,0,13,���k��,2.5,26,
2014/5/4,0:00:00,13,���k��,1.3,-0.9,93,0,0,11,���쐼,2.4,36,
2014/5/5,1:00:00,12,��,2.3,-1.8,92.2,0,0,13,���k��,2.9,59,
2014/5/5,2:00:00,12,��,1.6,-1.2,92.2,0,0,13,���k��,2.7,59,
2014/5/5,3:00:00,12,��,2.1,-1.2,94.3,0,0,12,��,2.6,59,
2014/5/5,4:00:00,12,��,2.2,0.4,92.2,0,0,12,��,3.1,54,
2014/5/5,5:00:00,13,���k��,1,1.3,91.3,0,0.02,12,��,2.4,25,
2014/5/5,6:00:00,13,���k��,1.6,4,85,0,0.08,13,���k��,3.4,26,
2014/5/5,7:00:00,12,��,1.2,6.6,73,0,0.17,11,���쐼,2.4,4,
2014/5/5,8:00:00,3,���k��,2.6,9,67.7,0,0.31,3,���k��,4.1,59,
2014/5/5,9:00:00,4,��,3.1,9,65.8,0,0.32,5,���쓌,5,57,
2014/5/5,10:00:00,3,���k��,3.7,10.4,62.7,0,0.52,3,���k��,5.7,56,
2014/5/5,11:00:00,4,��,3.7,9.9,63.1,0,0.76,3,���k��,5.9,18,
2014/5/5,12:00:00,4,��,3.5,8.7,70.9,0,0.6,4,��,5.7,5,
2014/5/5,13:00:00,5,���쓌,3.4,9.7,67.2,0,0.8,4,��,5.8,53,
2014/5/5,14:00:00,5,���쓌,3.3,8.1,76.5,0,0.79,4,��,6.2,3,
2014/5/5,15:00:00,5,���쓌,4.3,7.7,81.4,0,0.29,5,���쓌,6.5,55,
2014/5/5,16:00:00,5,���쓌,2.5,10.2,74.9,0,0.34,5,���쓌,5.5,23,
2014/5/5,17:00:00,5,���쓌,2.5,10.1,79.5,0,0.32,4,��,4.5,27,
2014/5/5,18:00:00,5,���쓌,1.9,8.2,86,0,0.1,6,�쓌,4.5,42,
2014/5/5,19:00:00,5,���쓌,4.1,8.5,85.5,0,0.01,7,��쓌,7.6,21,
2014/5/5,20:00:00,5,���쓌,4.3,9.2,92.9,0,0,8,��,8.5,59,
2014/5/5,21:00:00,8,��,4,7.8,88.7,0,0,7,��쓌,8.8,7,
2014/5/5,22:00:00,8,��,5.6,8.1,90.6,0,0,8,��,12.4,19,
2014/5/5,23:00:00,8,��,4.3,7.4,93.5,0,0,7,��쓌,10.8,9,
2014/5/5,0:00:00,10,�쐼,2.7,7.3,94.8,0,0,8,��,8.3,2,
2014/5/6,1:00:00,13,���k��,1.7,7.3,96.9,0,0,8,��,3.9,22,
2014/5/6,2:00:00,15,�k�k��,1.2,8,95,0,0,14,�k��,3.2,30,
2014/5/6,3:00:00,13,���k��,1.4,8,95.2,0,0,14,�k��,4.3,38,
2014/5/6,4:00:00,2,�k��,2.7,8,94.9,0.5,0,2,�k��,5.2,57,
2014/5/6,5:00:00,6,�쓌,0.9,7.4,98,0,0.01,4,��,3.4,19,
2014/5/6,6:00:00,4,��,0.8,7.6,98.9,0,0.05,5,���쓌,2.7,7,
2014/5/6,7:00:00,6,�쓌,1.7,7.6,97.2,0,0.08,5,���쓌,3,27,
2014/5/6,8:00:00,3,���k��,1.6,11.1,90.5,0,0.41,4,��,3,54,
2014/5/6,9:00:00,4,��,2.5,12.5,68.8,0,0.78,3,���k��,5.3,44,
2014/5/6,10:00:00,4,��,5,12.9,71.7,0,0.94,4,��,6.7,49,
2014/5/6,11:00:00,5,���쓌,4.1,10.9,76.2,0,0.77,5,���쓌,7.1,19,
2014/5/6,12:00:00,7,��쓌,3.3,12.7,60.7,0,0.86,5,���쓌,6.1,20,
2014/5/6,13:00:00,5,���쓌,2.4,13.9,47.6,0,0.92,7,��쓌,5.5,14,
2014/5/6,14:00:00,7,��쓌,3.2,15,37.1,0,0.84,7,��쓌,5.6,56,
2014/5/6,15:00:00,12,��,9,15.8,25.6,0,0.73,12,��,14.5,50,
2014/5/6,16:00:00,11,���쐼,7.2,14.9,33.7,0,0.53,12,��,14.3,30,
2014/5/6,17:00:00,11,���쐼,5.4,13,43.9,0,0.33,10,�쐼,13.8,25,
2014/5/6,18:00:00,11,���쐼,6.3,11.7,43.8,0,0.14,11,���쐼,10.4,16,
2014/5/6,19:00:00,11,���쐼,3.2,10.5,47.8,0,0.01,12,��,8.1,1,
2014/5/6,20:00:00,7,��쓌,2.9,7,63.5,0,0,7,��쓌,3.6,58,
2014/5/6,21:00:00,8,��,1.1,5.6,69.6,0,0,7,��쓌,3.7,2,
2014/5/6,22:00:00,7,��쓌,0.8,3,84,0,0,7,��쓌,1.8,54,
2014/5/6,23:00:00,8,��,2.4,8.2,71.6,0,0,8,��,3.9,50,
2014/5/6,0:00:00,11,���쐼,1.3,1,87.9,0,0,12,��,3.1,44,
2014/5/7,1:00:00,12,��,1.2,1.1,84.6,0,0,13,���k��,4.6,59,
2014/5/7,2:00:00,11,���쐼,2.1,-0.2,91.1,0,0,12,��,4.5,43,
2014/5/7,3:00:00,12,��,0.9,-0.5,90.3,0,0,10,�쐼,4.6,18,
2014/5/7,4:00:00,9,��쐼,1.5,4,78.2,0,0,10,�쐼,4.9,24,
2014/5/7,5:00:00,1,�k�k��,0.6,2,86.9,0,0.03,16,�k,2.3,51,
2014/5/7,6:00:00,10,�쐼,3.8,10.3,60,0,0.17,10,�쐼,6.6,59,
2014/5/7,7:00:00,10,�쐼,4.9,12.1,49.6,0,0.31,10,�쐼,9.4,46,
2014/5/7,8:00:00,9,��쐼,5.9,12.1,50.9,0,0.58,10,�쐼,10.7,44,
2014/5/7,9:00:00,9,��쐼,6.5,13.1,46.8,0,0.73,8,��,11.7,13,
2014/5/7,10:00:00,9,��쐼,5.5,14.5,40,0,0.9,8,��,11,26,
2014/5/7,11:00:00,8,��,6.1,15,37.7,0,1,8,��,12.3,47,
2014/5/7,12:00:00,8,��,3.3,14.1,43.2,0,0.99,8,��,10.4,3,
2014/5/7,13:00:00,11,���쐼,7.2,17.4,31.1,0,0.87,12,��,12,44,
2014/5/7,14:00:00,11,���쐼,7.9,17.1,33,0,0.9,11,���쐼,11.8,33,
2014/5/7,15:00:00,11,���쐼,7.2,16.4,33.5,0,0.67,11,���쐼,13.8,37,
2014/5/7,16:00:00,10,�쐼,6.9,14.1,47.7,0,0.32,10,�쐼,12.1,6,
2014/5/7,17:00:00,10,�쐼,4.7,12.6,59.7,0,0.23,10,�쐼,8.8,38,
2014/5/7,18:00:00,8,��,4,8.6,72,0,0.09,10,�쐼,8.1,6,
2014/5/7,19:00:00,8,��,3.2,8.3,77.2,0,0.01,8,��,6.1,2,
2014/5/7,20:00:00,8,��,3.9,8,75,0,0,8,��,5.5,22,
2014/5/7,21:00:00,8,��,2.4,8.4,74.8,0,0,8,��,5.1,3,
2014/5/7,22:00:00,9,��쐼,2.8,8.8,70,0,0,9,��쐼,4.6,36,
2014/5/7,23:00:00,9,��쐼,3.6,8.4,72.4,0,0,9,��쐼,5.8,35,
2014/5/7,0:00:00,8,��,0.5,7.9,74.7,0,0,9,��쐼,5.2,21,
2014/5/8,1:00:00,14,�k��,0.5,4,86.5,0,0,8,��,2.3,2,
2014/5/8,2:00:00,16,�k,0.7,0.9,91.3,0,0,13,���k��,2.7,38,
2014/5/8,3:00:00,12,��,1.5,-0.5,95.5,0,0,12,��,2.5,58,
2014/5/8,4:00:00,12,��,2.4,1.5,94.6,0,0,13,���k��,3.9,56,
2014/5/8,5:00:00,13,���k��,2.5,2.4,92.7,0,0.02,13,���k��,4.6,35,
2014/5/8,6:00:00,16,�k,1.5,6.6,74,0,0.16,12,��,5.1,34,
2014/5/8,7:00:00,10,�쐼,0.3,10.4,62.9,0,0.33,2,�k��,1.5,11,
2014/5/8,8:00:00,5,���쓌,2.1,13.7,52.9,0,0.49,5,���쓌,3.1,55,
2014/5/8,9:00:00,6,�쓌,2.3,13.5,49.4,0,0.66,7,��쓌,4.3,34,
2014/5/8,10:00:00,6,�쓌,2.6,15.7,45.2,0,0.84,6,�쓌,4.1,57,
2014/5/8,11:00:00,4,��,3.7,16.4,43.7,0,0.95,4,��,6.2,59,
2014/5/8,12:00:00,4,��,3.1,15.7,48.4,0,0.97,5,���쓌,5.2,20,
2014/5/8,13:00:00,5,���쓌,3,15.2,49,0,0.89,4,��,5.1,17,
2014/5/8,14:00:00,5,���쓌,2,13.8,47.5,0,0.66,5,���쓌,4.5,10,
2014/5/8,15:00:00,7,��쓌,3.7,13.9,46.7,0,0.53,7,��쓌,5.9,52,
2014/5/8,16:00:00,10,�쐼,5.7,20.5,22.4,0,0.48,10,�쐼,10.9,47,
2014/5/8,17:00:00,9,��쐼,3.8,16.7,32,0,0.32,9,��쐼,10.2,9,
2014/5/8,18:00:00,9,��쐼,2.8,16.6,29.3,0,0.09,10,�쐼,8.6,13,
2014/5/8,19:00:00,6,�쓌,1,11.3,45.2,0,0.01,8,��,3.6,44,
2014/5/8,20:00:00,8,��,3,8.3,61.3,0,0,8,��,4.5,54,
2014/5/8,21:00:00,8,��,2.5,8.6,80.7,0,0,7,��쓌,4.8,34,
2014/5/8,22:00:00,7,��쓌,1.6,8.7,85.1,0,0,9,��쐼,6.6,16,
2014/5/8,23:00:00,9,��쐼,1.2,6.8,92.9,0,0,7,��쓌,6.2,14,
2014/5/8,0:00:00,8,��,1.8,7.9,96.9,0,0,9,��쐼,5.5,15,
2014/5/9,1:00:00,5,���쓌,1.1,6.3,98.1,0,0,8,��,5.5,16,
2014/5/9,2:00:00,14,�k��,0.4,6.9,98.2,0,0,10,�쐼,2.1,11,
2014/5/9,3:00:00,3,���k��,1.7,6.3,97,0,0,5,���쓌,2.9,29,
2014/5/9,4:00:00,2,�k��,1.4,6.6,97.9,0,0,4,��,2.8,2,
2014/5/9,5:00:00,3,���k��,2.5,6.3,98.2,0,0.01,3,���k��,3.5,58,
2014/5/9,6:00:00,2,�k��,2.9,6.7,98.7,0,0.03,2,�k��,4.2,59,
2014/5/9,7:00:00,3,���k��,2.7,6.2,99,0,0.03,2,�k��,4.8,21,
2014/5/9,8:00:00,16,�k,1.7,7.3,99.5,0.5,0.04,2,�k��,4.5,3,
2014/5/9,9:00:00,4,��,0.9,6.8,99.2,0,0.1,3,���k��,4.6,25,
2014/5/9,10:00:00,14,�k��,1.6,9.9,95.1,0.5,0.44,14,�k��,3.8,57,
2014/5/9,11:00:00,5,���쓌,1.6,10.4,91.1,0,0.42,14,�k��,3.6,0,
2014/5/9,12:00:00,5,���쓌,2.5,11.6,77.9,0,0.83,6,�쓌,4.4,58,
2014/5/9,13:00:00,5,���쓌,2.1,8.3,91.9,0,0.62,5,���쓌,4.5,18,
2014/5/9,14:00:00,4,��,2.4,8.2,96.4,0,0.32,2,�k��,3.4,58,
2014/5/9,15:00:00,3,���k��,3.5,8.8,90.3,0,0.42,3,���k��,5.5,49,
2014/5/9,16:00:00,4,��,3.6,9.7,84.1,0,0.46,3,���k��,5.4,3,
2014/5/9,17:00:00,4,��,2.3,9,86.8,0,0.3,4,��,4.8,0,
2014/5/9,18:00:00,3,���k��,2.9,6.7,93.5,0,0.14,3,���k��,3.8,53,
2014/5/9,19:00:00,8,��,0.6,5.6,97.2,0,0.02,5,���쓌,3.7,14,
2014/5/9,20:00:00,3,���k��,2,5.6,98.7,0,0,3,���k��,2.6,57,
2014/5/9,21:00:00,2,�k��,1.7,5.4,99.2,0,0,3,���k��,2.6,50,
2014/5/9,22:00:00,1,�k�k��,1.1,5.7,99.6,0,0,1,�k�k��,3.5,18,
2014/5/9,23:00:00,1,�k�k��,0.8,5.9,99.8,0,0,2,�k��,2,0,
2014/5/9,0:00:00,1,�k�k��,0.9,6.6,99.9,0,0,14,�k��,1.6,18,
2014/5/10,1:00:00,3,���k��,0.4,6.1,100,0,0,12,��,2.2,26,
2014/5/10,2:00:00,11,���쐼,0.8,6.5,100,0,0,12,��,1.7,31,
2014/5/10,3:00:00,10,�쐼,0.3,6.3,100,0,0,13,���k��,2.6,28,
2014/5/10,4:00:00,12,��,0.3,5.4,100,0,0,15,�k�k��,2.5,0,
2014/5/10,5:00:00,13,���k��,2.8,6.8,100,0,0.02,14,�k��,5.9,41,
2014/5/10,6:00:00,16,�k,1.2,8.7,99.4,0,0.18,13,���k��,4.7,33,
2014/5/10,7:00:00,2,�k��,2.1,8.7,82.4,0,0.29,4,��,5.1,59,
2014/5/10,8:00:00,3,���k��,1.7,13.8,78.9,0,0.44,4,��,4.7,0,
2014/5/10,9:00:00,1,�k�k��,4.4,15.3,62,0,0.57,1,�k�k��,8,56,
2014/5/10,10:00:00,4,��,3.6,11.5,78.8,0,0.46,15,�k�k��,9.1,8,
2014/5/10,11:00:00,5,���쓌,3.2,12.6,74.2,0,1,5,���쓌,5.9,50,
2014/5/10,12:00:00,4,��,2.8,12.9,70.8,0,0.91,5,���쓌,5.9,8,
2014/5/10,13:00:00,8,��,1.9,15.1,64.8,0,0.9,5,���쓌,5.3,9,
2014/5/10,14:00:00,6,�쓌,2.9,13.4,68.8,0,0.56,7,��쓌,5.3,16,
2014/5/10,15:00:00,6,�쓌,3,12.8,69.6,0,0.49,7,��쓌,4.8,26,
2014/5/10,16:00:00,7,��쓌,1.8,13.7,68.7,0,0.39,6,�쓌,4.5,14,
2014/5/10,17:00:00,5,���쓌,1.9,12.4,71.2,0,0.25,6,�쓌,3.7,55,
2014/5/10,18:00:00,9,��쐼,0.6,11.7,74.8,0,0.11,5,���쓌,2.7,1,
2014/5/10,19:00:00,11,���쐼,1,8.7,87.4,0,0.02,11,���쐼,2,33,
2014/5/10,20:00:00,12,��,1.7,7.7,91.3,0,0,12,��,2.4,42,
2014/5/10,21:00:00,13,���k��,1.1,6,93.9,0,0,12,��,2.6,39,
2014/5/10,22:00:00,13,���k��,1.5,5.6,95.3,0,0,12,��,3.5,23,
2014/5/10,23:00:00,12,��,1.4,5.1,95.8,0,0,7,��쓌,3,41,
2014/5/10,0:00:00,13,���k��,2.3,6.9,93.6,0,0,13,���k��,3.9,49,
2014/5/11,1:00:00,13,���k��,2.5,6.1,93.1,0,0,13,���k��,4.3,34,
2014/5/11,2:00:00,14,�k��,2.4,6.5,92.3,0,0,13,���k��,5.6,34,
2014/5/11,3:00:00,12,��,1.1,4.7,96.8,0,0,13,���k��,3.1,1,
2014/5/11,4:00:00,14,�k��,1.3,3.4,96.5,0,0,13,���k��,2.8,33,
2014/5/11,5:00:00,13,���k��,1.5,4.8,96.2,0,0.04,12,��,2.5,11,
2014/5/11,6:00:00,10,�É�,0.2,8.6,86.6,0,0.2,10,�쐼,7.3,52,
2014/5/11,7:00:00,10,�쐼,0.9,12,72.9,0,0.4,10,�쐼,2,58,
2014/5/11,8:00:00,7,��쓌,2.5,15,66,0,0.61,8,��,4,46,
2014/5/11,9:00:00,7,��쓌,3.3,14.3,62.2,0,0.78,6,�쓌,5.1,57,
2014/5/11,10:00:00,7,��쓌,2.8,14.2,63.1,0,0.91,7,��쓌,5.3,14,
2014/5/11,11:00:00,6,�쓌,2.7,15.3,65.1,0,1,7,��쓌,5.8,23,
2014/5/11,12:00:00,6,�쓌,2.5,16.4,56.8,0,1.03,7,��쓌,5.5,15,
2014/5/11,13:00:00,7,��쓌,2.7,19.2,43.5,0,0.99,7,��쓌,4.7,53,
2014/5/11,14:00:00,9,��쐼,3,24.2,27,0,0.89,10,�쐼,5.8,32,
2014/5/11,15:00:00,8,��,3.8,24.2,21.8,0,0.74,8,��,7.5,14,
2014/5/11,16:00:00,6,�쓌,2.1,23.7,36.6,0,0.54,8,��,7,3,
2014/5/11,17:00:00,10,�쐼,3.9,24.9,30.1,0,0.3,11,���쐼,7.6,15,
2014/5/11,18:00:00,11,���쐼,3.5,22.1,33.7,0,0.11,11,���쐼,6.5,28,
2014/5/11,19:00:00,13,���k��,1.3,16.4,51.6,0,0.02,11,���쐼,4.1,10,
2014/5/11,20:00:00,4,��,1.2,10.7,72.7,0,0,5,���쓌,3.5,31,
2014/5/11,21:00:00,12,��,0.6,10.3,73.8,0,0,5,���쓌,1.9,5,
2014/5/11,22:00:00,13,���k��,1.2,7.9,82.8,0,0,12,��,2.2,57,
2014/5/11,23:00:00,12,��,1,7.4,83.7,0,0,15,�k�k��,3.2,2,
2014/5/11,0:00:00,13,���k��,0.7,5.4,89.1,0,0,12,��,1.5,4,
2014/5/12,1:00:00,12,��,2.2,4.1,91.8,0,0,12,��,2.5,59,
2014/5/12,2:00:00,13,���k��,2.8,7,89,0,0,12,��,3.5,38,
2014/5/12,3:00:00,12,��,2.4,7,84.8,0,0,12,��,4.2,43,
2014/5/12,4:00:00,12,��,3.1,5.8,86.4,0,0,12,��,4,54,
2014/5/12,5:00:00,12,��,1.8,6.1,88.7,0,0.02,12,��,4,31,
2014/5/12,6:00:00,14,�k��,0.3,9.7,75.6,0,0.13,13,���k��,2.7,10,
2014/5/12,7:00:00,2,�k��,1.3,15.2,62.1,0,0.4,2,�k��,2.2,58,
2014/5/12,8:00:00,4,��,4.1,15.1,60,0,0.63,4,��,5.1,59,
2014/5/12,9:00:00,4,��,4.4,15.1,55.9,0,0.79,4,��,6,18,
2014/5/12,10:00:00,4,��,5.6,14.1,57.4,0,0.87,4,��,7.4,45,
2014/5/12,11:00:00,4,��,5.2,13.3,60.9,0,0.99,3,���k��,7.4,28,
2014/5/12,12:00:00,4,��,4.3,13.1,60.6,0,0.98,4,��,7.1,45,
2014/5/12,13:00:00,4,��,3.3,11.9,65,0,0.75,5,���쓌,6.3,1,
2014/5/12,14:00:00,5,���쓌,4.2,10.2,69.5,0,0.72,5,���쓌,6.4,34,
2014/5/12,15:00:00,4,��,3.7,9.5,75.7,0,0.47,4,��,6.2,3,
2014/5/12,16:00:00,4,��,3.4,9,79.3,0,0.28,4,��,5.6,1,
2014/5/12,17:00:00,3,���k��,3.2,8.3,84,0,0.15,4,��,4.9,8,
2014/5/12,18:00:00,3,���k��,3.3,7.5,89,0,0.06,3,���k��,5.2,47,
2014/5/12,19:00:00,3,���k��,4,7.3,90,0,0.01,2,�k��,5.9,50,
2014/5/12,20:00:00,3,���k��,4.1,6.9,92.2,0,0,3,���k��,6,2,
2014/5/12,21:00:00,3,���k��,4,7.1,93.3,0,0,3,���k��,7.1,6,
2014/5/12,22:00:00,3,���k��,2.9,7.5,94.5,0,0,3,���k��,5.8,18,
2014/5/12,23:00:00,3,���k��,2.7,7.3,95.8,0,0,3,���k��,4,54,
2014/5/12,0:00:00,3,���k��,2.8,7.5,98.1,0,0,2,�k��,4.1,49,
2014/5/13,1:00:00,16,�k,1.7,7.8,99.1,0,0,3,���k��,3,31,
2014/5/13,2:00:00,10,�쐼,1.7,8,99.5,0,0,1,�k�k��,3.9,40,
2014/5/13,3:00:00,8,��,0.7,8,99.6,0,0,1,�k�k��,5,24,
2014/5/13,4:00:00,2,�k��,1.6,8.1,99.8,0,0,3,���k��,2.6,57,
2014/5/13,5:00:00,8,��,1.1,8.3,100,0,0.01,3,���k��,3.6,16,
2014/5/13,6:00:00,7,��쓌,0.7,8,100,0,0.05,6,�쓌,2.8,9,
2014/5/13,7:00:00,9,��쐼,0.5,8.9,100,0,0.13,11,���쐼,2.2,33,
2014/5/13,8:00:00,6,�쓌,2.8,8.9,99.8,0,0.27,5,���쓌,4.4,53,
2014/5/13,9:00:00,4,��,4.1,9.8,90,0,0.51,4,��,5.6,58,
2014/5/13,10:00:00,4,��,4.1,12,82.4,0,0.88,4,��,5.6,59,
2014/5/13,11:00:00,4,��,2.6,13.8,80.6,0,0.91,4,��,5.6,0,
2014/5/13,12:00:00,4,��,2.4,11.8,78.3,0,0.75,5,���쓌,6.1,17,
2014/5/13,13:00:00,6,�쓌,3.6,15.5,59.6,0,0.75,6,�쓌,5.3,59,
2014/5/13,14:00:00,6,�쓌,4,13.6,66.5,0,0.69,5,���쓌,6.1,46,
2014/5/13,15:00:00,6,�쓌,3.1,12.2,74,0,0.34,6,�쓌,6.1,11,
2014/5/13,16:00:00,10,�쐼,1.6,13,80.4,0,0.17,7,��쓌,5.3,5,
2014/5/13,17:00:00,13,���k��,2.7,14.9,83,0.5,0.15,13,���k��,5,55,
2014/5/13,18:00:00,8,��,2,13.9,88.1,0,0.06,13,���k��,4,11,
2014/5/13,19:00:00,9,��쐼,1.7,10.1,92.6,0,0.01,7,��쓌,4.3,22,
2014/5/13,20:00:00,9,��쐼,2.3,13.7,72.7,0,0,9,��쐼,4.2,48,
2014/5/13,21:00:00,10,�쐼,2.6,14.1,70.8,0,0,9,��쐼,5.6,51,
2014/5/13,22:00:00,10,�쐼,6.4,14.2,70.2,0,0,10,�쐼,9.6,44,
2014/5/13,23:00:00,10,�쐼,3.7,13.9,69.2,0,0,11,���쐼,8.6,3,
2014/5/13,0:00:00,10,�쐼,2.8,14.1,69.2,0,0,9,��쐼,5.8,21,
2014/5/14,1:00:00,11,���쐼,2.3,12.8,74.9,0,0,10,�쐼,5.7,13,
2014/5/14,2:00:00,10,�쐼,2.3,12.8,77,0,0,9,��쐼,3.4,58,
2014/5/14,3:00:00,10,�쐼,2.5,13.2,75.3,0,0,10,�쐼,5.2,59,
2014/5/14,4:00:00,10,�쐼,2.9,13.5,73.8,0,0,10,�쐼,7.5,38,
2014/5/14,5:00:00,10,�쐼,5.3,14.7,71,0,0.04,11,���쐼,8.6,43,
2014/5/14,6:00:00,10,�쐼,3.8,16,67,0,0.17,10,�쐼,7.5,5,
2014/5/14,7:00:00,10,�쐼,4.5,17.7,58.6,0,0.39,9,��쐼,6.6,23,
2014/5/14,8:00:00,10,�쐼,4.3,20.2,48.2,0,0.57,10,�쐼,7.6,18,
2014/5/14,9:00:00,7,��쓌,4.3,14.4,69.9,0,0.72,7,��쓌,9.8,20,
2014/5/14,10:00:00,8,��,4.5,17.3,56.5,0,0.85,8,��,9.4,20,
2014/5/14,11:00:00,8,��,4.3,17.7,54.4,0,0.94,8,��,7.5,17,
2014/5/14,12:00:00,8,��,4.1,16.1,58.9,0,0.97,8,��,10.2,41,
2014/5/14,13:00:00,8,��,3.9,14.2,64.4,0,0.87,8,��,10,37,
2014/5/14,14:00:00,7,��쓌,3,17.3,55.1,0,0.69,8,��,5.8,4,
2014/5/14,15:00:00,11,���쐼,6.2,24.7,32.1,0,0.68,12,��,10.7,44,
2014/5/14,16:00:00,11,���쐼,4.8,23.5,37.8,0,0.51,11,���쐼,10.3,1,
2014/5/14,17:00:00,11,���쐼,5.2,22.5,38.6,0,0.32,10,�쐼,10.1,22,
2014/5/14,18:00:00,11,���쐼,5.1,20.3,48.3,0,0.12,11,���쐼,9.5,9,
2014/5/14,19:00:00,14,�k��,3.6,19,49.8,0,0.02,11,���쐼,9.2,22,
2014/5/14,20:00:00,6,�쓌,1.8,14,66,0,0,16,�k,4.9,8,
2014/5/14,21:00:00,6,�쓌,2.5,12.3,72.6,0,0,5,���쓌,4.3,53,
2014/5/14,22:00:00,3,���k��,1.5,9.6,82.3,0,0,3,���k��,3.7,39,
2014/5/14,23:00:00,11,���쐼,0.6,8,87,0,0,1,�k�k��,2.7,31,
2014/5/14,0:00:00,15,�k�k��,0.6,6.6,92.5,0,0,16,�k,1.7,37,
2014/5/15,1:00:00,13,���k��,0.9,6.5,95.1,0,0,13,���k��,2.1,59,
2014/5/15,2:00:00,12,��,1.2,7,96.6,0,0,13,���k��,2.4,7,
2014/5/15,3:00:00,14,�k��,1.6,8.1,96.7,0,0,12,��,2.9,7,
2014/5/15,4:00:00,14,�k��,0.5,4.8,97.1,0,0,12,��,3,14,
2014/5/15,5:00:00,15,�É�,0.2,7.3,98.9,0,0.04,1,�k�k��,6.6,55,
2014/5/15,6:00:00,15,�k�k��,0.5,8.7,95.6,0,0.1,13,���k��,2.5,20,
2014/5/15,7:00:00,3,���k��,3.1,9.4,94.1,0,0.22,4,��,5,53,
2014/5/15,8:00:00,4,��,2.5,8.5,96.9,0,0.27,6,�쓌,5.5,24,
2014/5/15,9:00:00,2,�k��,0.8,12.7,85.5,0,0.53,3,���k��,3,3,
2014/5/15,10:00:00,3,���k��,2.3,13.7,77.2,0,0.68,5,���쓌,4.3,23,
2014/5/15,11:00:00,4,��,5,10.9,82.1,0,0.83,4,��,6.8,44,
2014/5/15,12:00:00,4,��,4.9,12.4,77.7,0,0.8,4,��,7.1,0,
2014/5/15,13:00:00,4,��,3.9,11,80.5,0,0.59,5,���쓌,6.6,48,
2014/5/15,14:00:00,3,���k��,3.4,11.3,77.4,0,0.56,4,��,5.4,5,
2014/5/15,15:00:00,4,��,4.4,11.7,79.2,0,0.52,4,��,6.2,57,
2014/5/15,16:00:00,3,���k��,4,10.6,82.7,0,0.22,3,���k��,6.3,56,
2014/5/15,17:00:00,2,�k��,3.4,10.8,81.6,0,0.17,3,���k��,6,2,
2014/5/15,18:00:00,2,�k��,2.2,9.1,87.8,0,0.08,3,���k��,5.1,2,
2014/5/15,19:00:00,14,�k��,1.7,9.3,87.9,0,0.01,14,�k��,3.1,34,
2014/5/15,20:00:00,14,�k��,2.5,9.6,87.4,0,0,14,�k��,3.9,57,
2014/5/15,21:00:00,13,���k��,1.7,9.7,88.3,0,0,14,�k��,4.2,27,
2014/5/15,22:00:00,14,�k��,1.9,10,88.2,0,0,11,���쐼,2.8,3,
2014/5/15,23:00:00,3,���k��,0.4,10.5,86.1,0,0,14,�k��,4.9,2,
2014/5/15,0:00:00,4,��,1.9,11.4,83.3,0,0,15,�k�k��,7.4,30,
2014/5/16,1:00:00,12,��,0.5,9.4,96,0,0,6,�쓌,3.9,6,
2014/5/16,2:00:00,12,��,2.3,9.3,98.5,4,0,13,���k��,3.4,54,
2014/5/16,3:00:00,8,��,2.6,9.4,98.5,6.5,0,8,��,5.7,28,
2014/5/16,4:00:00,14,�k��,1.7,10.2,99.2,4,0,14,�k��,3.4,30,
2014/5/16,5:00:00,16,�k,2.4,9.7,95.2,2,0.01,16,�k,5.4,28,
2014/5/16,6:00:00,15,�k�k��,2,9.5,96.3,1.5,0.04,15,�k�k��,4.6,56,
2014/5/16,7:00:00,15,�k�k��,1.5,10.4,95.1,0.5,0.11,14,�k��,4.1,42,
2014/5/16,8:00:00,14,�k��,3,10.4,90.8,0,0.15,15,�k�k��,6.6,35,
2014/5/16,9:00:00,14,�k��,3.5,10,89.1,0,0.19,16,�k,8.2,42,
2014/5/16,10:00:00,14,�k��,4.8,10.4,92.4,0.5,0.15,13,���k��,8.6,51,
2014/5/16,11:00:00,13,���k��,3.4,11,95,1,0.11,13,���k��,6.7,17,
2014/5/16,12:00:00,12,��,4.1,11.9,94.3,1,0.17,13,���k��,6.9,30,
2014/5/16,13:00:00,14,�k��,3.7,12,92.4,2,0.17,13,���k��,8.2,52,
2014/5/16,14:00:00,1,�k�k��,1.5,11.4,94,2,0.15,14,�k��,6.2,14,
2014/5/16,15:00:00,14,�k��,1.5,11.2,96,3,0.1,1,�k�k��,3.6,5,
2014/5/16,16:00:00,14,�k��,4.1,11.8,91.2,1.5,0.12,15,�k�k��,7,55,
2014/5/16,17:00:00,15,�k�k��,2.5,10.8,92.2,0.5,0.06,13,���k��,6.8,1,
2014/5/16,18:00:00,15,�k�k��,2,10,93.9,1,0.02,16,�k,6.5,14,
2014/5/16,19:00:00,14,�k��,2.5,8.7,95.4,2,0.01,15,�k�k��,5.5,23,
2014/5/16,20:00:00,13,���k��,3.1,8.1,94.4,0.5,0,14,�k��,6.3,32,
2014/5/16,21:00:00,13,���k��,2.3,8.1,96.4,0.5,0,12,��,5.4,1,
2014/5/16,22:00:00,12,��,1.6,8.1,97.7,1,0,10,�쐼,3.2,6,
2014/5/16,23:00:00,14,�k��,2.5,8.1,94.3,0,0,14,�k��,5.4,52,
2014/5/16,0:00:00,13,���k��,2.6,7.5,87.2,0,0,13,���k��,4.8,53,
2014/5/17,1:00:00,13,���k��,3.2,8.5,81.6,0,0,13,���k��,6,35,
2014/5/17,2:00:00,13,���k��,3.1,9.9,69,0,0,14,�k��,7.9,38,
2014/5/17,3:00:00,14,�k��,5.5,10.7,61.9,0,0,14,�k��,10.7,52,
2014/5/17,4:00:00,14,�k��,5.1,10.4,62.8,0,0,13,���k��,11.6,9,
2014/5/17,5:00:00,15,�k�k��,7,11.2,57.5,0,0.02,15,�k�k��,14.4,56,
2014/5/17,6:00:00,15,�k�k��,4.8,11.6,58.2,0,0.08,11,���쐼,13.3,14,
2014/5/17,7:00:00,15,�k�k��,5.4,11.2,61.1,0,0.15,15,�k�k��,13.4,48,
2014/5/17,8:00:00,14,�k��,6.1,11.4,56.6,0,0.24,14,�k��,16,30,
2014/5/17,9:00:00,14,�k��,6.5,12.2,51.9,0,0.48,16,�k,14.9,48,
2014/5/17,10:00:00,15,�k�k��,5,13.1,49.3,0,0.6,4,��,14.4,34,
2014/5/17,11:00:00,14,�k��,7.6,14.2,47.8,0,0.73,15,�k�k��,14.2,56,
2014/5/17,12:00:00,15,�k�k��,8.2,13.3,47.5,0,0.84,16,�k,14.7,50,
2014/5/17,13:00:00,15,�k�k��,9.2,14.4,41.4,0,0.85,13,���k��,17.6,59,
2014/5/17,14:00:00,15,�k�k��,9.3,13.6,44.6,0,0.84,16,�k,18.5,56,
2014/5/17,15:00:00,14,�k��,7.4,12.6,46.8,0,0.7,15,�k�k��,17.5,5,
2014/5/17,16:00:00,15,�k�k��,4.8,12.7,50.4,0,0.55,14,�k��,13.7,25,